STARLINK-5192, 54074

Orbit data source: Space-Track

STARLINK-5192, 54074 is a payload satellite owned by SpaceX/Seattle (US) in LEO that was launched on Thu, 20 Oct 2022 UTC via an FALCON 9 launch vehicle from the Air Force Eastern Test Range (AFETR). Payload-class satellites include a variety of spacecraft equipped with specific instruments for various scientific and technological missions. These include communications satellites like Starlink; space stations such as the ISS; scientific satellites like the Hubble; Earth observation satellites from companies like Planet Labs, Umbra, and HawkEye 360; GPS; miniature CubeSats for education and research; and military/defense satellites.

Loading next visibility...
Identifier
54074, 2022-136Z
Orbit
LEO
Country
Flag of USUS
Related business
Manufacturer
SpaceX/Seattle
Mission
Operational Commercial Communications
Bus & Motor
STARLINK, Unknown motor
Mass
305 kg wet, ~290 kg dry
Launch date (UTC)
2022-10-20 (3 years ago)
Launch vehicle
FALCON 9
Launch site
Air Force Eastern Test Range (AFETR)
Object type
Payload
Rocket body
Debris
Shape & HBR
Box + 1 Pan, 10.1 m
Radar Cross Section
13.562 m², Large (>1 m²)

Expand to show TLE details & history
Last TLE update: 15 hours ago

TLE from 15 hours ago
0 STARLINK-5192
1 54074U 22136Z   25347.34081528  .00000139  00000-0  26798-4 0  9995
2 54074  53.2189  11.3739 0001240  79.5594 280.5538 15.08839412173812
Epoch: 2025-12-13T08:10Z
TLE epoch observation values (Epoch: 2025-12-13T08:10:46.440Z)
Latitude
Longitude
166.41092°
Altitude
540.486 km
Speed
7.593 km/s
True Right ascension
00h 45m 29s
True Declination
0° 00' 00"
Sunlit
Object was in daylight at epoch
Visualization orbit readout
Latitude
Unknown
Longitude
Unknown
Altitude
Unknown
Speed
Unknown
Apparent Right ascension
Unknown
Apparent Declination
Unknown
Sunlit
N/A
Visualization observer readout
Local Sidereal Time
21:36:00
Azimuth
Unknown
Elevation
Unknown
Doppler factor
Unknown
Orbital elements
Apogee altitude
540.848 km
Perigee altitude
539.132 km
Semi-major axis
6,918.127 km
Eccentricity
0.00012
Inclination
53.2189°
RAAN
11.3739°
Arg. of periapsis
79.5594°
True anomaly
280.53983°
Mean anomaly
280.5538°
Eccentric anomaly
280.54682°
Mean motion
3.7719 °/min
Orbital period
95.44 mins
BSTAR
0.000026798
Loading maneuver chart data...
Computing Atmospheric mass density...
Loading historical data...
Loading historical data...
Loading historical data...
Loading historical data...
Loading historical data...
Loading historical data...
Loading historical data...

Documentation

Showing up to 5 results
|